Location: La Decapris
(43.1833°N, 6.1167°E)
Time: 06:21:24
(UTC+00:00)

Daily predictions for brighter satellites

Satellite Brightness Start Highest point End
(mag) Time Altitude Azimuth Time Altitude Azimuth Time Altitude Azimuth
Meteor 2-6 Rocket 4.4 18:58:42 10° N 19:04:18 85° W 19:10:04 10° S
Cosmos 220 Rocket 4.3 19:00:21 10° NNW 19:04:34 68° WSW 19:08:47 10° S
USA 238 DEB 3.8 18:58:37 10° S 19:04:54 49° ESE 19:11:24 10° NE
USA 238 3.8 18:58:44 10° S 19:05:01 49° ESE 19:11:30 10° NE
IRIDIUM 114 4.4 19:01:17 10° SSE 19:06:23 59° E 19:11:31 10° N
SPOT 3 Rocket 4.4 19:01:57 10° SE 19:06:31 32° ENE 19:11:05 10° N
Cosmos 1867 3.6 19:01:39 10° SSW 19:07:02 75° ESE 19:12:30 10° NE
Cosmos 1697 Rocket 2.7 19:01:28 10° NNW 19:07:07 88° ENE 19:12:44 10° SSE
CENTAUR R/B 3.2 19:03:55 10° S 19:08:48 29° ESE 19:14:22 10° NE
Cosmos 1666 Rocket 4.0 19:05:20 10° SSE 19:09:20 39° E 19:13:23 10° NNE
MOS 1 Rocket 3.7 19:04:02 10° NNE 19:09:29 89° WNW 19:14:41 10° SSW
Cosmos 1954 Rocket 4.3 19:06:50 10° S 19:11:52 45° ESE 19:16:55 10° NNE
IRIDIUM 103 4.3 19:10:20 10° S 19:15:31 72° E 19:20:44 10° N
DMSP B5D2-2 4.2 19:10:42 10° NNE 19:15:50 53° E 19:20:57 10° S
FREGAT/IRIS 2.2 19:13:38 10° SSE 19:16:14 71° ENE 19:18:52 10° N
Cosmos 1821 Rocket 4.0 19:10:36 10° S 19:16:43 72° E 19:22:58 10° NNE
Ariane Rocket 3.0 19:12:11 10° SSE 19:17:15 86° ENE 19:22:20 10° NNW
Cosmos 405 Rocket 4.5 19:15:22 10° ESE 19:17:23 14° E 19:19:25 10° NE
Intercosmos 25 3.0 19:16:17 10° N 19:19:50 60° E 19:22:57 10° SSE
Cosmos 1805 Rocket 3.9 19:15:27 10° SSW 19:19:53 75° W 19:24:22 10° N
Cosmos 1812 2.8 19:17:35 10° N 19:21:27 79° W 19:25:16 10° S
Cosmos 407 Rocket 3.9 19:16:55 10° SSW 19:22:13 71° WNW 19:27:30 10° NNE
SJ-6B 2.8 19:21:13 10° SSE 19:25:15 86° ENE 19:29:13 10° NNW
Cosmos 1862 4.4 19:22:21 10° SSW 19:26:17 49° WNW 19:30:15 10° N
Cosmos 1190 Rocket 4.2 19:21:07 10° SSW 19:26:24 80° WNW 19:31:45 10° NNE
deb Kosmos-1763 4.1 19:24:08 10° SSW 19:27:45 82° WNW 19:31:26 10° NNE
Cosmos 1140 Rocket 3.7 19:23:00 10° SSW 19:28:14 80° WNW 19:33:32 10° NNE
Resurs 1-3 3.9 19:26:09 10° SSE 19:30:21 49° ENE 19:34:37 10° N
OBJECT-B 1.0 19:29:46 10° SSE 19:32:57 51° ENE 19:36:11 10° N
Cosmos 1441 Rocket 4.5 19:29:55 10° SSW 19:33:31 43° WNW 19:37:07 10° N
Cosmos 2084 Rocket 4.0 19:30:01 10° S 19:33:48 34° ESE 19:37:40 10° NE
Cosmos 1633 Rocket 3.0 19:31:47 10° S 19:36:08 65° E 19:40:31 10° NNE
Cosmos 1184 Rocket 3.0 19:33:51 10° S 19:37:02 48° E 19:40:14 10° NNE
SL-08 RB Rocket 4.4 19:33:38 10° S 19:38:11 56° W 19:42:48 10° NNW
Cosmos 921 Rocket 3.3 19:38:04 10° N 19:42:07 45° ENE 19:45:04 17° SE
Cosmos 1535 Rocket 4.4 19:36:28 10° S 19:42:31 65° E 19:48:33 10° NNE
Cosmos 2123 Rocket 4.0 19:37:20 10° N 19:43:35 66° E 19:49:48 10° SSE
Meteor 1-27 Rocket 4.1 19:42:55 10° NNW 19:48:51 73° W 19:54:45 10° S
Cosmos 1605 Rocket 4.1 19:45:07 10° SSE 19:50:59 50° E 19:56:50 10° NNE
Okean 1 4.3 19:50:56 10° NNE 19:54:31 30° ENE 19:56:09 22° ESE
Cosmos 1707 Rocket 4.2 19:50:31 10° NNW 19:54:47 56° W 19:59:00 10° S
NOSS 3-2 (A) 3.5 19:49:23 10° SW 19:55:02 78° NW 20:01:31 10° NE
CZ-2C R/B 3.0 19:50:18 10° N 19:55:26 65° WNW 20:00:39 10° SSW
Cosmos 192 4.4 19:52:36 10° NNW 19:57:32 84° WSW 20:01:41 15° SSE
USA 267 3.7 19:53:12 10° ENE 19:59:11 37° SE 20:05:10 10° SSW
SL-4 R/B 4.0 19:59:24 10° WNW 20:02:45 25° N 20:05:53 10° NE
SL-16 R/B 2.8 19:57:54 10° NNW 20:03:18 42° ENE 20:06:28 22° ESE
BREEZE-M DEB (TANK) 3.7 20:01:28 10° WNW 20:04:00 36° N 20:09:35 10° ENE
SL-27 R/B 3.0 20:04:28 31° ESE 20:04:33 31° ESE 20:07:32 10° NE
BREEZE-M DEB (TANK) 4.1 20:01:56 10° WNW 20:04:58 17° WSW 20:06:56 10° SSW
NOSS 3-2 (C) 3.3 20:00:04 10° SSW 20:05:40 79° ESE 20:12:06 10° NE
Cosmos 1470 Rocket 3.4 20:01:34 10° S 20:05:57 75° E 20:10:19 10° NNE
Cosmos 2242 Rocket 4.0 20:03:00 10° N 20:07:14 43° ENE 20:09:08 27° SE
Cosmos 2082 Rocket 3.6 20:04:56 10° SW 20:10:19 42° WNW 20:15:43 10° NNE
BREEZE-M DEB (TANK) 3.9 20:09:17 10° WNW 20:11:25 21° N 20:12:31 14° NE
Meteor 1-14 Rocket 4.5 20:13:21 17° SSE 20:17:42 52° E 20:23:28 10° NNE
ERS-1 Rocket 4.1 20:16:14 23° E 20:17:54 28° ENE 20:22:08 10° N
Meteor 1-4 Rocket 4.1 20:15:37 10° NNW 20:18:43 31° W 20:21:48 10° SSW
Cosmos 2322 Rocket 2.7 20:15:09 10° NNW 20:20:39 47° ENE 20:23:15 28° ESE
Cosmos 1862 Rocket 4.0 20:18:13 10° NNW 20:22:36 60° W 20:25:58 16° S
Cosmos 1850 Rocket 3.9 20:17:24 10° SSW 20:22:41 76° ESE 20:27:57 10° NNE
Meteor 1-25 Rocket 4.3 20:18:54 10° SSW 20:24:29 82° W 20:30:09 10° N
Cosmos 1500 4.4 20:25:36 25° ENE 20:25:36 25° ENE 20:28:05 10° NNE
SPOT 1/Viking Rocket 3.9 20:23:32 31° SE 20:25:42 49° ENE 20:30:44 10° N
USA 32 4.1 20:21:57 10° S 20:27:10 78° W 20:32:25 10° N
Cosmos 841 Rocket 4.1 20:23:14 10° N 20:28:12 40° ENE 20:29:56 31° ESE
Terra 3.3 20:27:56 21° E 20:28:49 22° ENE 20:32:25 10° NNE
USA 276 2.7 20:26:36 10° NW 20:29:42 47° NNE 20:30:10 43° NE
Cosmos 2360 Rocket 3.3 20:24:41 10° N 20:29:42 31° NE 20:31:48 24° E
X-37B 0.4 20:27:05 10° WNW 20:30:14 82° SSW 20:30:22 79° SSE
ATLAS 3B R/B 2.8 20:24:35 10° S 20:30:46 44° ESE 20:36:59 10° NE
IGS 5A 3.4 20:29:39 42° SE 20:30:52 65° ENE 20:35:00 10° N
Meteor 1-18 Rocket 4.1 20:25:25 10° N 20:31:00 77° E 20:33:52 30° SSE
Cosmos 1238 Rocket 2.6 20:30:32 32° SW 20:31:38 56° W 20:34:36 10° N
USA 234 4.3 20:29:00 14° E 20:34:07 38° NNE 20:40:02 10° NW
Cosmos 468 Rocket 4.0 20:31:56 10° NNW 20:37:15 79° WSW 20:39:43 32° S
Resurs 01 Rocket 2.4 20:34:56 19° SSW 20:37:52 47° W 20:42:10 10° NNW
Iridium 4 Rocket 4.4 20:38:44 24° ENE 20:38:44 24° ENE 20:41:30 10° NNE
Cosmos 1980 Rocket 3.7 20:33:31 10° NW 20:38:28 32° WSW 20:43:06 11° SSW
Cosmos 44 3.5 20:34:01 10° NNW 20:38:58 65° NE 20:40:36 41° ESE
Cosmos 1602 4.0 20:37:46 23° SSW 20:40:02 66° W 20:43:59 10° N
Lacrosse 5 1.9 20:35:06 10° NW 20:40:10 71° SW 20:41:50 42° SSE
CARTOSAT-1 4.1 20:40:31 39° E 20:40:59 40° ENE 20:45:03 10° N
Cosmos 1153 Rocket 4.4 20:36:52 19° S 20:41:26 80° E 20:47:39 10° N
Cosmos 1447 Rocket 4.5 20:35:29 10° N 20:41:51 89° ENE 20:45:26 28° S
GP-B 3.8 20:41:21 10° N 20:45:42 54° W 20:48:37 20° SSW
Cosmos 1933 Rocket 4.1 20:42:59 15° SSW 20:46:31 57° W 20:50:56 10° N
Cosmos 405 Rocket 4.1 20:50:04 13° SW 20:53:00 36° WNW 20:56:30 10° N
Spot 2 Rocket 3.5 20:51:17 39° S 20:53:13 79° WSW 20:58:21 10° NNW
COSMOS 2428 4.5 20:51:51 10° N 20:55:54 19° NE 20:57:48 17° ENE
Cosmos 1814 Rocket 4.2 20:50:47 10° NNW 20:55:56 57° ENE 20:56:56 48° ESE
Cosmos 1802 Rocket 4.3 20:54:58 41° SE 20:56:34 50° E 21:02:38 10° NNE
Cosmos 1869 Rocket 3.4 20:57:44 67° SE 20:58:09 74° E 21:02:37 10° NNE
CENTAUR R/B 3.2 20:53:09 10° WSW 20:58:58 54° NW 21:05:53 10° NNE
Cosmos 1515 3.8 20:55:32 10° NNW 20:59:20 66° W 20:59:36 63° SW
Okean 1-7 3.0 20:56:55 10° NNW 21:01:13 74° W 21:01:51 61° SSW
Cosmos 1437 Rocket 3.3 21:03:24 10° NNW 21:07:04 49° W 21:07:19 48° WSW
Cosmos 1763 Rocket 4.3 21:06:23 10° NNW 21:11:27 45° WSW 21:13:14 33° SSW
Cosmos 1703 Rocket 4.2 21:07:18 10° NNW 21:11:30 50° W 21:12:20 43° SW
Cosmos 1570 Rocket 4.0 21:08:39 10° NNW 21:14:00 81° WSW 21:14:57 61° S
Cosmos 2333 Rocket 3.4 21:09:11 10° N 21:14:14 30° NE 21:15:19 28° ENE
ATLAS 5 CENTAUR R/B 3.3 21:11:28 10° NNW 21:14:21 36° NE 21:14:58 35° ENE
SPOT 5 2.5 21:17:39 82° NE 21:17:39 82° NE 21:21:57 10° NNW
Meteor 1-5 Rocket 4.2 21:18:35 47° S 21:20:26 90° WNW 21:26:23 10° N
Cosmos 2208 Rocket 3.9 21:20:16 10° NNW 21:25:30 77° WSW 21:25:57 71° SSW
Cosmos 1733 Rocket 4.2 21:29:41 33° NE 21:29:41 33° NE 21:32:26 10° NNE
Meteor 1-11 Rocket 3.6 21:31:46 73° SE 21:32:10 77° E 21:37:58 10° NNE
Lacrosse 4 Rocket 2.7 21:37:37 34° NNE 21:37:37 34° NNE 21:40:04 10° NNE
Tsikada Rocket 4.0 21:32:04 10° N 21:38:20 60° E 21:38:46 58° E
Cosmos 2100 Rocket 4.4 21:36:57 34° SW 21:39:32 59° W 21:45:37 10° N
USA 267 3.5 21:35:57 10° NE 21:42:26 68° NW 21:48:55 10° WSW
SL-4 R/B 3.8 21:40:00 10° NW 21:42:58 25° N 21:42:58 25° N
Cosmos 2173 Rocket 4.4 21:41:11 36° SW 21:43:32 58° WNW 21:49:34 10° N
Meteor 2-4 Rocket 4.3 21:38:19 10° NNW 21:43:36 46° W 21:44:39 41° SW
Cosmos 540 Rocket 4.1 21:39:14 10° NNW 21:44:09 45° WSW 21:44:28 45° WSW
Cosmos 2219 Rocket 2.8 21:38:45 10° NNW 21:44:11 43° ENE 21:44:23 43° ENE
SL-16 R/B 3.5 21:42:20 10° NW 21:47:12 30° WSW 21:48:19 28° SW
Cosmos 1725 Rocket 3.9 21:55:17 71° SSW 21:56:02 84° W 22:02:24 10° N
ERS-1 Rocket 4.0 21:56:14 36° WSW 21:56:32 37° W 22:01:11 10° NNW
Meteor 1-23 Rocket 4.2 21:51:34 10° N 21:57:14 77° ENE 21:57:14 77° ENE
Cosmos 2322 3.7 21:51:58 10° NNW 21:57:25 76° NE 21:57:25 76° NE
SL-08 R/B 4.4 21:59:40 69° SW 22:00:16 76° W 22:06:24 10° N
Cosmos 1536 4.5 22:03:05 32° NNW 22:03:05 32° NNW 22:05:27 10° N
Cosmos 2016 Rocket 4.3 22:02:20 50° SW 22:03:44 62° W 22:10:05 10° N
Cosmos 2322 Rocket 3.6 21:59:44 10° NW 22:04:25 27° WSW 22:05:03 26° WSW
Terra 2.7 22:06:49 42° W 22:06:49 42° W 22:10:50 10° NNW
Cosmos 2333 4.3 22:06:46 10° NNW 22:12:06 74° NW 22:12:06 74° NW
Cosmos 2360 Rocket 3.0 22:08:30 10° NW 22:13:33 42° W 22:13:33 42° W
USA 234 3.1 22:16:20 81° SE 22:16:43 88° SW 22:23:18 10° NW
ATLAS 3B R/B 3.7 22:15:16 10° WSW 22:21:28 42° NW 22:27:45 10° NNE
Lacrosse 5 4.4 22:20:46 10° W 22:21:01 10° WSW 22:21:01 10° WSW
MOS 1-B Rocket 3.9 22:18:03 10° NNE 22:23:10 75° N 22:23:10 75° N
Cosmos 2297 Rocket 4.1 22:32:12 19° ENE 22:32:12 19° ENE 22:34:10 10° NE
Cosmos 2233 Rocket 4.1 22:34:08 67° W 22:34:14 67° W 22:40:32 10° N
Thor Agena Rocket 4.4 22:31:31 10° NNE 22:35:03 45° NNE 22:35:03 45° NNE
COSMOS 2428 3.1 22:35:06 10° NNW 22:39:48 60° NW 22:39:48 60° NW
Cosmos 1464 Rocket 4.5 22:46:12 51° NE 22:46:12 51° NE 22:51:09 10° NNE
Cosmos 2237 Rocket 3.0 22:39:50 10° NNW 22:44:34 43° NE 22:44:34 43° NE
NOSS 0 Rocket 4.1 22:46:16 10° NNW 22:51:50 69° N 22:51:50 69° N
Cosmos 2333 Rocket 3.2 22:53:12 10° NW 22:57:19 39° WNW 22:57:19 39° WNW
Lacrosse 4 Rocket 4.3 23:13:52 11° WNW 23:15:10 12° NW 23:16:49 10° NNW
Cosmos 2034 Rocket 4.3 23:19:27 62° NE 23:19:27 62° NE 23:24:44 10° N
Cosmos 2227 Rocket 3.3 23:22:00 37° NE 23:22:00 37° NE 23:25:29 10° NNE
Cosmos 2219 Rocket 3.9 23:23:05 10° NW 23:26:05 24° WNW 23:26:05 24° WNW
Cosmos 1607 4.2 23:41:37 10° NNW 23:47:26 66° NNE 23:47:26 66° NNE
